Theta_e
337 339 340 339 340 339 338 338 337 336 336 336 334 331 330 331 331 330 327 326 327 328 329 327 323 321 321 321 328 331 334 335 336 336 336 340 345 349 352 352 351 351 352 351 349 348 347 346 346 345 345 343 342 341 340 340 337 336 336 336 336 336 336 337 337 337 337 337 337 337 335 335 335 335 335 335 334 334 334 335 335 335 335 335 334
337 339 339 339 339 339 338 337 337 336 335 335 335 329 328 328 329 328 326 324 324 326 328 326 324 324 322 324 331 334 335 334 334 336 339 342 344 348 352 352 351 351 351 350 348 347 347 346 345 344 343 343 341 341 340 339 336 335 334 334 336 337 337 337 336 335 335 336 336 335 335 334 334 334 333 333 333 332 333 333 333 334 333 332 332
338 338 338 339 339 338 338 337 336 335 335 336 335 331 327 327 329 328 326 324 323 324 325 325 323 323 325 332 334 335 335 333 333 336 340 342 343 345 350 352 351 351 350 349 348 347 346 346 344 343 343 342 342 341 339 339 337 334 333 335 336 335 335 335 335 334 334 334 334 334 333 333 333 332 332 331 332 332 331 331 331 331 331 330 331
338 338 338 338 338 338 337 336 336 335 335 336 335 332 328 327 329 330 328 326 325 324 326 324 325 322 332 333 335 334 334 332 333 336 341 342 344 345 346 349 351 350 349 348 347 347 346 345 344 343 342 341 341 340 339 338 336 335 334 334 334 334 333 333 332 333 333 333 333 333 332 332 331 332 331 331 330 329 329 329 328 329 328 329 329
339 338 339 337 337 338 337 337 336 335 335 336 335 332 328 327 329 330 329 328 327 328 332 328 324 327 332 334 334 333 333 333 333 337 341 343 344 345 345 346 347 348 348 348 347 346 344 344 343 343 342 341 340 339 336 335 334 334 334 334 334 333 333 332 332 331 331 331 332 332 332 331 329 328 330 330 329 328 327 327 327 327 327 327 328
340 338 339 336 335 337 337 336 337 336 336 336 334 330 328 328 328 329 333 330 327 327 327 326 325 329 332 333 332 333 332 333 333 337 341 343 343 343 343 343 343 343 345 347 346 345 344 343 342 342 341 340 340 337 335 333 332 335 335 334 333 332 331 331 329 329 328 329 330 330 329 328 328 329 330 328 327 327 326 326 326 326 326 326 326
341 339 338 337 335 336 336 337 337 337 336 336 334 333 331 331 332 331 329 328 327 328 328 324 327 332 332 333 333 333 334 335 335 338 341 342 342 341 341 341 341 342 342 341 344 344 343 342 341 340 339 339 339 336 334 332 332 335 335 333 332 331 329 329 328 328 327 327 327 327 326 325 327 328 327 326 326 325 325 325 325 325 325 324 324
343 340 338 336 335 335 336 336 337 337 337 337 336 337 336 336 333 331 329 328 327 327 325 324 325 329 332 333 334 335 333 334 336 339 340 341 341 340 339 340 339 339 342 338 338 341 342 342 341 340 339 338 336 335 335 333 332 335 334 332 330 329 328 328 327 327 327 327 327 327 328 328 327 327 326 326 325 325 325 324 324 324 324 324 324
343 341 338 336 335 335 335 336 336 337 337 337 336 336 335 336 332 332 329 328 327 326 325 323 323 329 332 332 333 333 332 332 336 338 340 339 339 339 338 338 340 344 336 336 336 337 340 340 340 338 336 335 335 334 332 331 334 335 333 331 330 328 327 327 326 326 326 325 326 326 327 326 326 326 326 325 324 324 324 324 323 323 323 323 323
341 340 339 338 337 336 335 336 336 335 335 337 335 336 335 335 333 331 330 328 326 324 325 323 326 329 331 332 333 331 330 333 336 343 338 338 338 338 337 338 339 336 336 335 335 335 336 337 336 334 334 333 332 330 330 331 336 335 333 331 330 328 327 327 326 325 325 324 324 325 325 325 325 325 325 323 322 322 323 324 323 323 322 322 321
341 339 337 336 335 335 335 335 336 334 334 336 333 333 333 332 332 332 332 329 328 326 324 326 328 331 332 331 331 331 331 333 337 336 337 338 338 339 338 337 336 335 334 334 333 332 331 328 326 325 328 331 331 331 332 334 335 334 333 331 329 328 327 326 325 324 324 323 324 324 324 324 324 324 324 324 323 322 322 322 322 321 320 318 318
339 338 338 336 333 333 334 335 335 335 333 334 333 333 333 332 330 331 331 331 331 328 327 332 330 330 331 331 332 331 332 331 332 335 336 337 338 337 337 336 335 334 334 333 332 330 327 324 328 324 326 330 333 334 334 334 334 333 332 330 329 327 325 325 323 322 322 322 322 322 322 322 322 322 322 323 322 321 320 321 323 322 321 320 320
339 337 336 338 333 332 334 333 334 335 335 334 335 335 334 334 332 331 331 328 328 327 326 331 331 326 327 326 328 331 337 331 330 333 335 336 336 336 336 336 334 333 333 332 330 328 324 324 324 324 326 326 331 334 334 333 332 332 331 330 328 325 324 323 322 321 321 321 321 321 321 320 320 321 321 322 322 322 321 319 319 321 320 318 317
338 336 335 335 331 331 332 333 333 333 333 334 333 338 335 332 332 330 330 329 327 327 328 331 325 324 324 324 323 326 330 329 331 330 333 334 335 335 335 334 333 333 332 331 329 326 323 323 324 324 325 325 326 328 330 331 331 331 330 329 327 325 325 323 322 322 320 319 319 320 320 319 319 319 320 319 319 320 321 321 320 319 319 320 318
337 336 334 334 332 331 331 333 333 336 333 332 334 333 333 333 331 332 327 329 329 330 327 326 322 322 322 323 318 321 321 322 325 328 332 333 333 334 334 333 333 333 333 331 329 326 324 322 323 324 324 324 325 326 327 329 329 330 329 328 326 326 325 324 323 322 320 318 318 318 318 318 317 318 318 318 318 318 319 319 318 318 317 317 317
336 335 334 333 332 331 332 333 333 334 333 331 330 333 331 331 331 331 329 326 327 329 329 327 324 327 321 319 317 316 315 321 320 324 327 331 332 333 333 332 332 332 332 331 329 327 324 322 323 324 324 324 324 326 326 325 330 329 328 327 326 326 326 325 324 322 321 319 318 318 317 317 317 317 317 316 316 316 317 317 317 317 317 317 316
336 336 335 332 332 332 332 334 333 333 334 332 331 332 332 333 334 332 330 328 326 325 328 327 325 331 324 317 315 315 314 313 318 320 323 327 328 331 334 331 331 331 332 331 331 329 325 321 322 323 323 322 324 326 325 326 325 327 325 327 327 326 325 325 324 323 321 320 318 317 316 316 316 316 316 315 315 315 315 315 316 316 316 316 316
336 336 335 334 332 333 334 335 334 333 334 333 332 331 331 331 333 334 332 330 330 325 326 326 327 331 328 326 324 317 313 316 318 315 322 324 327 331 333 332 331 331 331 330 330 329 328 321 322 322 322 322 324 325 323 321 325 321 320 324 326 325 324 325 324 323 322 320 319 318 316 316 316 315 315 315 315 315 315 315 315 314 315 315 315
336 336 335 335 333 334 334 335 336 334 336 333 331 332 333 333 333 333 333 333 329 326 325 326 328 328 330 328 328 323 323 323 316 314 315 319 323 326 328 329 328 330 330 329 328 328 328 323 322 322 322 323 324 323 321 321 324 323 328 328 326 324 324 325 324 322 321 320 320 319 317 316 315 315 315 315 314 314 314 315 314 314 314 314 314
336 336 336 336 335 334 335 335 335 335 335 335 333 333 334 334 334 333 333 333 331 329 326 325 327 326 329 328 328 326 324 321 321 323 317 315 317 321 323 325 326 327 329 327 325 325 326 324 322 322 321 323 324 322 321 320 320 320 324 326 324 324 323 323 322 321 321 322 320 318 317 317 315 315 315 314 314 314 313 313 313 314 313 314 314
336 336 336 336 337 335 335 335 335 335 337 335 335 334 334 333 332 331 330 330 331 331 328 327 329 327 326 326 326 325 327 326 324 322 316 314 313 317 318 323 324 325 326 326 324 324 325 324 324 323 322 322 321 320 320 319 319 318 324 326 324 324 323 323 321 320 320 320 320 319 318 317 316 315 315 314 313 313 313 312 312 313 313 313 313
335 336 336 336 337 336 335 335 335 335 337 335 336 335 334 333 333 332 331 330 330 331 330 329 330 330 330 330 328 324 324 324 324 323 321 319 316 317 318 318 317 321 323 325 325 323 324 323 323 322 321 320 319 319 320 319 319 319 322 325 324 323 323 322 320 320 319 319 319 319 318 317 316 316 315 314 313 312 312 312 312 312 313 313 313
334 335 335 336 335 336 336 335 336 338 338 336 335 336 335 335 334 332 332 332 331 330 330 329 330 330 329 329 329 329 326 324 324 322 322 316 313 316 319 319 319 317 320 325 326 326 325 324 321 319 319 318 318 319 319 318 321 321 323 324 324 323 322 321 321 320 319 318 317 317 317 317 316 315 314 314 312 311 311 311 311 311 312 313 313
334 334 334 335 335 335 336 336 336 336 337 336 336 336 336 336 334 333 333 333 333 332 330 329 329 329 329 329 329 329 329 327 327 325 324 322 319 315 315 318 318 318 320 321 326 326 325 324 322 318 317 318 318 318 318 318 319 323 322 323 323 323 322 321 320 319 318 318 317 316 316 316 315 315 314 313 313 311 311 311 310 310 311 312 313
333 333 333 334 334 334 335 335 335 337 337 337 336 336 335 335 335 334 333 332 332 331 329 330 330 329 329 330 330 328 329 327 324 324 322 319 317 314 316 319 316 317 320 322 319 323 324 323 320 318 316 317 317 317 317 317 317 322 321 320 321 321 321 321 320 319 318 318 317 316 316 315 315 314 314 312 313 312 310 310 309 309 309 311 313
333 333 334 335 334 335 336 336 336 337 338 337 337 336 336 336 335 334 334 334 331 331 331 330 329 330 329 328 328 328 328 325 324 322 320 318 317 317 314 315 315 315 318 319 321 319 322 323 321 317 316 316 316 316 315 316 317 322 320 317 318 319 319 320 320 320 319 317 316 315 314 313 313 313 313 313 313 311 310 309 309 308 308 308 311
334 334 335 335 335 335 336 336 337 337 338 337 338 337 336 336 336 335 335 332 333 332 329 330 330 328 327 328 329 327 327 325 324 324 325 324 321 319 316 312 314 316 315 318 319 319 320 321 319 315 316 315 314 314 314 314 317 321 319 316 315 317 316 318 320 319 317 316 315 314 313 313 312 313 314 313 313 312 310 310 309 308 307 307 309
334 335 334 335 334 336 337 337 337 338 338 338 337 337 336 335 334 334 331 334 332 330 329 328 331 329 329 326 326 327 326 325 325 324 324 326 324 323 320 318 315 311 315 316 317 318 322 319 319 316 315 315 314 313 315 316 316 320 319 313 313 315 315 315 317 318 316 316 316 315 315 314 314 313 313 313 314 314 312 311 310 308 307 306 307
334 335 334 334 335 337 338 337 338 339 339 338 338 337 336 335 334 332 331 329 330 327 326 326 327 327 326 325 326 325 324 323 324 324 324 325 325 324 322 320 318 314 313 314 316 317 320 321 318 315 315 313 312 311 313 313 316 318 314 312 313 313 313 313 314 317 317 318 316 316 316 316 315 314 313 313 315 316 313 311 310 308 307 306 306
335 336 335 335 334 340 338 338 339 339 339 338 337 337 336 335 334 332 330 328 326 325 327 326 325 326 325 324 325 325 324 323 324 323 324 324 325 323 323 322 320 317 316 314 314 318 316 320 321 315 312 311 311 310 311 311 316 316 312 311 311 311 312 312 312 314 314 315 316 317 317 316 316 316 314 314 313 316 313 312 310 308 307 307 306
334 335 335 335 335 336 337 338 339 339 338 337 337 336 336 335 334 331 329 327 325 323 323 325 325 327 326 326 324 326 324 324 323 323 324 325 325 324 323 322 321 320 318 315 311 314 319 316 319 318 312 310 310 310 310 311 316 315 311 311 311 313 313 312 312 312 312 312 313 315 317 316 316 316 316 315 314 313 314 312 311 309 307 307 307
334 335 335 335 335 336 336 338 338 338 337 337 337 336 336 335 334 332 330 328 326 326 324 324 325 324 325 325 325 326 325 325 323 322 324 324 326 325 324 323 322 320 320 316 314 314 316 319 319 316 313 310 310 309 309 310 315 314 310 310 311 313 312 311 312 311 310 310 311 312 314 316 316 316 316 316 314 314 312 313 310 308 307 307 307
335 335 335 336 336 336 337 337 338 338 337 336 337 336 335 335 334 333 331 329 328 325 325 322 324 324 324 325 325 324 325 325 324 323 324 324 324 325 325 324 322 321 320 317 315 315 314 317 318 314 312 311 309 309 308 309 311 312 311 309 310 310 311 311 312 310 309 309 308 308 309 310 313 316 315 315 314 313 314 312 309 310 308 308 307
336 336 336 337 337 337 337 337 338 338 338 337 336 336 335 334 333 333 332 329 327 326 324 324 323 324 323 323 324 325 326 325 324 324 324 324 323 323 323 323 321 320 320 317 314 311 311 313 314 313 312 312 309 310 308 309 310 311 310 310 310 310 311 311 310 310 309 308 308 308 307 307 307 311 313 314 310 309 308 306 307 308 308 308 305
337 338 337 338 338 338 338 338 338 338 337 336 336 335 334 333 332 331 331 330 328 326 324 324 324 323 322 322 322 322 323 323 323 323 323 324 324 323 321 321 320 320 320 319 315 313 312 311 314 312 312 312 311 309 311 311 311 311 310 311 311 311 312 310 309 309 308 307 307 307 307 306 306 306 306 305 305 304 303 304 305 305 305 302 301
338 338 339 339 339 339 338 338 337 337 336 335 335 334 333 333 332 332 330 329 328 327 326 325 324 323 322 319 319 319 321 321 321 320 321 320 320 320 320 319 320 321 321 322 321 316 313 311 313 314 313 312 313 313 313 312 312 312 312 313 313 311 310 310 309 308 308 307 306 306 306 305 305 305 304 304 304 303 303 303 303 303 301 301 301
338 338 338 340 339 339 338 337 337 335 335 334 334 333 333 332 332 331 330 329 327 328 328 327 328 323 321 321 320 320 320 319 319 319 320 322 322 319 319 319 320 321 321 321 321 320 315 313 313 315 315 314 315 314 313 311 311 312 313 312 311 311 309 308 309 309 308 308 307 306 305 305 305 304 303 303 303 303 303 303 302 301 301 301 300
338 339 339 339 339 339 338 337 336 335 335 334 334 333 332 332 331 331 331 329 328 329 328 327 326 324 323 322 319 319 319 318 316 317 320 320 318 316 315 316 317 317 317 317 319 318 315 314 314 313 314 313 313 313 313 312 310 310 310 311 311 311 309 308 307 307 307 307 305 305 304 304 304 303 303 303 303 303 303 303 302 302 301 301 300
338 338 339 339 338 339 337 336 336 335 334 334 334 333 333 333 332 330 327 325 325 325 324 325 324 322 320 320 320 321 320 318 317 317 317 315 315 312 312 315 316 318 317 315 314 314 314 313 313 314 313 314 314 312 313 313 312 311 309 308 307 309 308 307 305 304 304 305 305 305 305 304 304 302 303 303 303 303 303 303 302 302 302 301 300
338 338 338 338 338 338 336 335 336 335 335 334 333 333 333 333 331 329 329 327 325 323 321 322 322 320 320 322 322 320 318 316 316 314 313 311 310 312 313 316 316 317 314 313 313 313 312 312 311 311 310 311 311 312 314 312 310 309 310 308 306 306 306 305 303 303 303 304 303 303 305 304 304 304 304 304 304 304 304 304 304 304 303 300 299
337 338 338 338 336 335 333 332 334 335 335 334 333 334 333 332 330 328 328 327 325 323 321 320 320 321 322 322 320 318 320 321 317 316 316 316 314 312 310 311 312 312 312 311 310 311 312 312 311 311 310 310 309 310 309 308 308 308 308 308 307 307 304 303 303 303 303 303 302 302 303 303 302 302 302 301 302 304 304 304 304 304 302 300 299
336 336 336 337 336 336 334 332 332 333 333 332 329 322 324 330 328 326 324 323 323 322 321 320 318 319 320 321 323 322 317 315 311 306 305 308 312 313 309 308 308 309 309 308 308 310 312 312 311 310 307 307 307 309 309 309 309 309 307 306 305 303 303 300 301 301 304 304 303 302 303 305 303 302 301 300 301 304 301 301 301 301 302 300 299
335 334 333 331 330 330 330 331 331 330 329 326 311 308 309 314 325 325 324 323 324 323 322 320 318 317 315 314 316 318 315 312 307 302 301 301 300 301 303 307 310 308 306 306 305 306 308 309 309 307 307 306 307 308 309 308 307 308 306 305 303 302 301 300 298 300 306 305 303 301 301 303 303 301 299 300 300 301 302 300 300 301 301 300 299
331 329 330 331 331 330 330 329 327 326 324 312 303 305 306 309 317 326 325 325 324 323 321 319 317 314 314 314 313 313 312 310 308 306 303 300 299 299 299 299 298 297 301 305 303 302 302 304 303 303 306 307 306 306 305 305 305 302 301 302 303 303 301 299 298 297 299 305 301 296 296 298 300 300 299 301 302 301 302 301 300 300 300 300 299
327 331 330 330 330 330 329 327 323 322 319 304 303 305 305 306 309 320 325 325 324 322 319 317 316 315 314 313 313 314 316 317 312 307 306 305 303 302 303 303 303 300 295 296 300 304 304 303 301 300 300 298 300 302 302 303 304 303 300 301 299 300 300 299 296 296 300 302 299 295 294 296 299 298 296 297 299 301 301 301 300 299 300 300 299
329 329 328 329 330 330 328 325 322 321 316 306 303 304 304 304 305 314 324 323 323 321 318 316 315 316 315 314 313 313 311 309 307 306 306 306 305 303 301 300 300 301 301 299 299 300 304 304 302 301 301 300 300 299 302 303 305 303 302 300 300 299 299 298 299 300 301 303 297 294 291 294 295 293 293 296 298 299 299 300 300 299 299 299 298
329 326 327 328 329 328 326 325 322 320 318 301 301 302 302 303 303 313 323 322 320 318 316 315 315 315 314 314 313 311 308 307 307 306 306 305 302 301 299 298 298 297 296 296 297 302 304 303 302 301 299 301 301 301 301 303 305 304 304 302 301 300 299 299 297 297 297 298 295 293 291 293 291 291 293 295 297 298 298 297 298 299 299 299 298
322 323 324 325 325 325 324 323 321 318 312 298 299 300 301 301 303 321 321 319 318 316 315 314 314 314 313 313 311 309 308 307 308 303 305 305 302 300 299 298 298 297 297 298 294 296 300 300 300 300 299 298 298 300 302 304 303 303 303 301 300 298 296 294 293 293 294 295 295 293 290 292 292 291 293 294 295 295 296 295 297 298 298 298 297
323 323 324 324 325 323 322 321 320 316 311 300 298 298 299 298 308 319 319 318 317 316 315 314 314 314 314 313 312 310 309 307 303 297 299 305 301 300 299 298 298 298 297 297 295 294 294 294 294 294 294 295 295 296 296 298 301 301 300 298 295 296 294 292 292 290 291 290 293 292 290 291 292 291 293 294 294 294 295 295 295 297 297 297 297
322 322 325 325 323 322 321 320 320 317 315 304 296 297 296 299 313 319 319 318 316 315 314 312 313 314 315 317 316 311 309 308 298 297 298 304 301 299 299 298 298 297 296 298 300 298 295 295 295 295 296 296 297 297 296 297 299 302 300 297 296 295 292 291 288 290 291 294 295 296 291 293 292 291 292 293 294 294 294 294 295 296 297 296 296
323 324 324 324 322 321 320 320 319 319 316 305 295 295 296 299 311 318 319 317 315 312 310 306 307 312 314 316 315 312 311 306 296 296 299 304 302 300 299 298 297 297 297 297 299 299 299 300 300 301 301 302 304 303 302 299 299 303 300 299 296 295 292 291 291 291 291 293 295 294 291 291 290 293 292 292 291 292 292 292 293 292 293 294 294
Wind_Speed
8 8 7 8 7 7 6 6 6 6 5 5 5 5 5 5 5 6 5 5 5 6 5 6 3 3 5 6 4 4 3 3 3 3 2 3 4 6 9 9 9 9 9 10 11 11 12 12 12 11 11 11 11 11 10 10 10 9 8 7 7 7 8 10 13 13 12 11 11 11 10 11 11 11 11 12 12 11 11 11 11 12 11 11 11
9 8 8 8 7 7 7 7 7 6 6 6 6 5 6 5 5 5 5 6 5 7 4 4 3 5 7 6 4 4 5 4 3 3 4 4 4 5 9 9 9 9 9 10 12 12 12 12 11 11 10 11 11 10 10 10 9 8 7 7 9 11 12 12 11 11 11 10 10 10 11 11 11 11 11 12 11 11 10 11 11 11 11 11 10
8 9 8 8 7 7 7 6 6 6 6 7 5 6 5 6 6 6 6 6 6 6 3 4 4 7 4 5 5 5 5 3 3 3 4 4 4 4 5 10 10 9 10 10 11 12 11 11 11 10 10 10 10 10 9 9 9 8 8 9 11 11 11 10 10 10 9 9 8 9 10 10 10 10 11 11 12 12 11 11 11 11 10 10 10
9 9 9 8 8 8 7 7 7 6 6 7 6 6 6 6 6 5 6 5 6 4 4 3 3 6 2 4 4 5 4 3 4 3 4 4 4 4 5 6 9 10 11 10 10 12 11 11 10 10 10 9 9 9 9 9 8 8 8 9 11 10 10 9 9 9 8 8 8 8 9 10 10 10 10 11 12 11 11 10 10 10 10 10 11
9 9 9 8 8 8 7 7 7 7 6 7 7 5 5 5 5 4 4 5 5 5 3 2 1 0 1 4 5 4 4 4 4 4 4 4 4 5 5 5 6 10 12 11 10 10 12 11 10 10 9 9 9 8 8 7 6 6 7 8 11 10 9 9 9 9 8 8 8 8 8 9 9 6 8 11 11 10 10 9 9 9 10 11 11
8 9 8 8 8 8 8 7 7 6 7 6 6 5 6 5 7 5 6 6 6 6 1 3 3 2 1 3 4 4 5 5 5 5 4 4 4 5 5 5 5 6 7 10 10 10 11 10 10 10 9 9 8 8 7 5 5 7 8 9 10 9 9 9 9 8 8 8 9 9 8 7 7 8 10 11 10 11 10 10 10 10 10 11 12
8 8 8 7 8 8 8 8 7 6 6 6 6 5 6 7 6 6 5 4 3 1 1 3 1 3 3 3 4 4 4 5 5 5 5 4 5 5 5 6 5 5 5 5 8 10 9 9 10 9 9 8 8 7 6 5 5 8 10 10 9 9 9 9 9 9 8 7 7 6 5 5 9 10 11 10 11 11 10 10 11 11 11 10 10
8 8 8 7 7 7 7 6 7 6 6 6 5 6 6 5 3 2 0 2 3 3 0 1 1 3 2 2 4 3 4 4 5 5 5 5 5 5 5 5 5 5 5 5 5 7 10 8 7 8 8 8 7 7 7 5 6 9 11 10 10 9 9 8 8 9 9 8 9 9 10 11 10 11 11 11 11 11 10 10 11 11 11 12 12
7 8 7 7 6 7 6 6 6 7 7 6 6 6 4 3 2 2 2 1 1 4 4 1 2 1 0 1 2 3 4 5 6 6 6 6 5 5 5 5 6 7 5 5 5 5 8 10 9 8 8 7 6 6 6 5 9 11 11 10 10 9 9 9 9 9 9 9 9 10 11 10 11 11 11 11 11 12 10 11 12 11 11 12 12
7 6 7 7 6 6 5 5 5 5 5 5 6 4 3 4 3 2 2 1 1 2 5 3 1 4 4 3 3 3 2 5 6 6 7 7 6 6 6 5 5 5 5 5 5 5 5 8 10 9 9 7 6 6 6 6 11 12 11 11 10 9 9 10 10 10 10 9 9 9 10 11 10 12 11 11 10 9 10 11 11 11 12 12 12
8 7 6 6 5 5 5 5 5 5 5 4 3 3 3 2 3 3 1 2 2 3 3 2 0 3 4 2 2 3 0 2 5 6 6 7 7 6 5 6 6 5 6 5 5 5 5 4 4 4 5 8 5 5 5 10 12 13 13 11 10 10 10 11 11 10 10 10 10 10 10 10 11 11 10 11 11 10 11 10 11 10 9 9 9
8 7 7 6 5 4 5 5 5 5 6 5 4 4 4 3 2 3 3 1 1 2 2 3 3 3 2 0 0 1 0 2 4 5 5 6 6 6 6 5 6 5 6 6 5 5 5 5 4 5 4 5 5 4 9 11 12 12 12 12 11 10 10 11 11 11 10 9 10 10 11 11 11 11 10 10 10 9 9 10 11 11 11 11 12
7 7 7 6 5 5 4 4 4 5 5 6 5 5 4 5 4 2 3 3 3 2 3 3 5 2 3 2 1 2 2 2 3 5 6 5 6 6 5 6 6 6 6 5 6 5 5 5 5 5 5 3 4 7 10 11 11 12 12 12 11 10 10 11 11 10 9 9 9 10 10 10 9 10 10 10 10 10 10 9 9 11 11 9 9
7 6 6 7 6 5 5 4 4 4 3 4 4 4 4 3 3 1 0 3 3 3 4 4 1 4 3 1 1 2 2 2 3 3 4 5 6 7 7 7 7 6 6 6 5 5 5 5 5 5 4 4 4 4 6 7 8 11 12 11 10 9 9 10 12 10 9 7 8 9 11 11 10 10 10 11 10 10 11 10 11 9 9 10 10
7 7 7 6 6 6 5 5 4 5 4 4 4 4 4 5 4 4 2 1 3 2 4 3 4 2 1 3 1 1 3 2 2 1 4 5 5 6 7 7 8 7 7 6 6 5 5 5 5 5 5 4 5 5 5 5 5 11 11 11 9 9 10 10 11 11 9 7 7 9 10 10 9 10 11 10 9 8 9 10 9 9 9 9 10
8 7 6 6 7 7 6 5 5 4 5 5 4 4 4 4 4 3 3 3 2 4 3 4 4 6 1 3 2 3 1 4 3 1 2 5 7 7 6 7 7 7 6 7 6 6 6 6 6 6 5 4 5 5 5 4 9 12 11 10 10 10 9 10 10 10 11 9 8 10 9 10 10 10 11 10 9 9 9 9 9 8 8 9 10
8 8 8 8 6 6 6 6 5 5 5 5 5 5 5 5 5 4 4 4 4 3 2 3 4 5 6 2 2 0 4 3 2 1 1 3 4 6 7 7 7 7 7 6 6 7 7 7 6 5 5 4 5 5 5 4 5 4 7 10 10 10 10 9 10 11 10 11 10 8 9 9 10 10 11 11 10 9 9 10 9 9 8 9 9
9 9 8 7 7 6 6 6 5 5 5 5 5 4 4 4 5 5 5 4 4 3 4 1 4 5 5 6 7 5 3 3 2 3 1 1 4 6 7 7 5 6 6 7 8 7 7 7 7 7 6 5 5 5 5 4 4 4 5 7 10 8 7 9 10 10 10 10 10 9 8 9 10 10 10 10 10 10 10 10 10 9 9 9 10
8 9 8 7 6 6 6 6 6 5 4 5 4 5 6 6 5 4 5 5 3 4 5 6 0 3 4 4 2 2 6 6 5 2 1 2 0 5 5 3 2 5 6 7 8 8 6 7 8 7 7 6 6 5 5 5 5 6 7 9 10 8 9 11 9 8 7 8 9 9 9 8 9 9 10 10 10 10 10 10 9 9 9 9 10
9 8 9 7 7 7 6 6 5 5 5 5 5 5 5 4 4 6 5 5 6 6 6 5 5 3 3 4 1 1 1 1 4 8 5 4 4 2 2 4 1 3 5 5 7 8 8 7 8 7 6 6 6 6 5 5 4 4 6 11 10 10 11 10 9 8 8 8 9 9 9 8 8 9 9 9 9 10 10 10 9 9 9 9 9
8 9 9 8 7 7 6 6 5 4 4 5 4 5 7 6 4 4 4 4 5 6 5 6 6 5 3 2 1 2 2 1 2 2 2 1 2 1 2 1 3 5 3 5 3 5 7 8 8 9 8 7 6 5 5 5 5 4 4 9 10 11 11 11 9 8 7 9 8 8 8 8 8 8 8 9 9 9 9 10 9 9 9 9 9
8 8 8 8 7 6 6 6 6 5 4 5 5 5 5 5 5 5 5 5 6 6 8 7 6 6 6 6 5 1 1 2 1 2 5 4 8 6 4 4 3 3 4 3 2 3 5 6 8 8 8 7 6 6 5 6 5 5 5 10 10 10 9 9 8 7 6 5 6 7 6 7 7 7 7 8 8 8 9 9 10 10 9 9 9
8 7 8 8 7 6 6 6 5 5 5 5 5 6 5 5 5 4 4 6 7 7 6 6 6 6 6 6 7 7 8 6 6 3 3 3 2 4 5 6 7 5 4 3 5 4 3 5 7 8 8 7 7 6 6 6 6 6 9 10 11 11 11 11 11 10 8 7 5 4 6 7 8 7 7 7 7 8 8 9 9 9 9 8 9
7 8 7 8 6 6 5 5 6 6 6 5 5 5 5 5 5 5 6 7 6 5 5 6 6 6 6 6 7 7 6 6 6 7 9 9 7 4 7 3 1 4 1 3 5 8 8 6 7 8 8 8 7 7 6 6 6 10 8 10 10 11 12 12 11 10 9 8 7 6 5 6 5 7 6 6 6 6 7 8 8 9 9 9 9
8 8 7 8 6 6 6 6 5 6 5 5 5 5 5 5 6 6 6 5 5 5 6 7 7 7 7 7 7 6 7 5 4 6 1 6 6 4 5 6 5 4 4 3 3 5 7 5 7 8 8 8 7 7 7 6 6 9 8 7 10 10 11 13 12 11 10 8 7 6 5 5 4 4 6 4 5 6 7 7 7 8 8 9 9
9 8 8 8 6 7 7 7 6 6 6 6 5 5 5 6 6 8 7 5 4 6 7 5 5 7 5 5 5 6 6 4 5 4 6 6 3 3 3 1 1 3 1 2 2 3 4 4 5 8 8 8 8 7 7 7 6 10 10 6 8 10 11 11 12 12 11 9 9 8 7 6 5 4 5 5 5 7 7 7 7 7 8 9 9
9 7 7 8 7 6 6 6 6 6 6 6 6 5 5 6 7 8 6 3 5 6 5 5 6 6 5 5 7 5 5 5 5 6 5 6 6 5 5 2 1 1 3 3 3 6 4 3 6 7 8 8 7 7 8 7 7 12 10 6 6 11 10 10 11 12 11 10 10 9 8 7 6 6 5 5 5 8 7 7 7 6 7 8 8
7 8 7 8 7 6 6 7 7 7 7 7 6 6 6 7 7 7 3 1 4 3 2 4 6 6 7 4 4 6 5 4 5 5 6 5 4 5 6 7 7 4 3 4 4 6 4 4 3 7 8 8 7 7 7 8 7 13 9 6 6 7 11 11 11 12 12 12 11 10 9 8 7 6 6 5 7 9 8 7 8 7 6 7 8
8 7 7 6 6 7 7 7 7 7 7 6 6 6 6 6 7 4 4 2 3 2 2 2 1 2 2 3 5 5 3 3 3 5 7 3 4 3 5 10 8 6 5 6 6 6 5 6 5 5 8 8 7 6 7 7 9 11 7 6 7 6 9 12 11 11 11 11 10 10 9 8 6 6 5 5 6 9 8 7 8 7 6 6 7
7 7 6 7 6 7 7 7 7 7 7 6 6 6 6 6 7 4 4 3 3 3 3 3 2 3 2 3 3 5 3 3 4 3 7 7 7 7 8 6 2 6 6 7 7 6 3 5 4 5 7 8 7 7 6 6 11 11 7 7 7 6 11 12 11 10 10 10 8 8 8 8 8 7 5 5 1 12 9 8 7 7 5 5 5
7 7 7 7 7 6 6 6 6 7 6 6 6 6 7 7 7 5 5 4 3 3 2 2 2 3 4 4 3 4 3 4 2 1 5 6 6 6 4 2 3 3 5 5 3 3 4 5 5 5 9 8 8 7 6 5 10 11 8 7 7 9 12 10 11 9 9 10 8 7 8 9 8 7 8 6 5 6 8 7 7 7 6 5 3
7 7 7 7 7 7 7 7 6 6 6 6 7 6 7 7 7 6 6 5 4 5 4 3 3 2 3 4 4 5 2 1 2 3 3 3 4 4 4 4 2 1 1 2 4 4 2 4 2 3 9 9 8 9 7 6 8 12 6 6 7 8 7 6 9 9 9 9 9 7 7 6 6 7 7 7 7 7 6 9 8 8 6 4 3
6 7 7 7 7 7 7 7 7 7 7 6 6 6 7 7 6 5 5 6 6 5 3 3 3 3 3 4 4 2 2 4 3 4 3 4 5 5 4 4 5 5 5 4 4 4 1 2 5 5 7 11 7 7 10 8 7 7 4 3 4 6 6 6 6 8 8 9 9 8 6 5 5 5 6 6 7 7 7 10 8 8 7 5 4
6 8 8 7 7 7 7 7 7 7 7 7 6 7 7 7 6 3 4 5 5 4 4 4 4 4 4 4 5 4 4 4 4 5 4 4 5 5 5 6 6 6 5 4 2 2 2 2 4 5 7 10 9 8 11 11 9 7 7 6 4 5 6 5 5 5 10 10 10 9 7 6 5 3 3 2 3 1 10 10 9 8 7 6 4
6 7 7 7 8 8 7 8 8 7 8 7 6 6 7 7 6 4 5 5 5 5 5 4 4 4 3 4 5 4 3 3 3 3 3 3 4 5 5 5 5 4 4 3 3 2 4 2 4 7 6 6 7 10 8 8 9 9 9 7 7 5 4 5 5 4 9 11 11 10 9 7 6 5 6 5 4 6 7 8 8 8 7 6 5
8 7 7 8 8 8 8 8 8 8 7 6 7 8 8 7 6 6 5 5 5 5 5 5 4 5 5 3 4 3 2 3 2 1 1 2 3 3 3 3 4 3 4 5 3 3 2 5 4 7 8 8 3 7 8 6 6 7 7 5 4 5 5 5 6 5 7 11 11 10 9 8 6 6 6 6 6 6 7 7 7 7 7 6 5
8 7 7 8 8 9 9 8 8 8 7 7 8 7 6 6 6 6 5 4 4 5 5 6 6 6 4 5 4 3 3 3 0 0 2 1 3 4 3 1 1 2 2 1 3 2 5 5 6 3 4 4 4 6 7 8 4 4 2 4 5 5 4 4 3 3 6 12 10 9 9 7 7 7 7 6 6 7 7 7 7 8 7 7 6
7 8 8 7 8 9 9 9 9 8 8 8 8 8 6 6 5 6 5 5 4 5 5 4 5 5 5 4 3 3 3 3 3 3 3 3 2 3 3 2 3 5 5 4 5 4 6 7 8 6 4 6 4 3 6 7 8 6 4 3 3 3 5 4 3 3 3 4 4 4 5 5 7 8 8 7 6 7 8 8 8 8 8 8 7
8 8 8 9 8 10 9 9 9 9 9 8 8 7 6 6 6 4 3 3 3 3 3 4 3 3 3 3 3 3 3 4 4 3 4 3 3 3 3 5 4 6 6 4 3 5 6 6 4 4 7 2 5 6 5 6 7 8 8 6 3 3 3 5 5 2 2 3 3 4 5 5 6 6 7 7 6 7 9 8 8 8 6 6 5
8 9 9 9 8 7 9 9 9 9 9 8 7 7 7 6 6 5 6 6 5 3 3 3 3 2 2 2 4 3 3 3 4 4 5 5 3 4 1 3 3 5 5 4 4 5 7 6 6 6 5 5 4 2 4 5 5 2 4 4 7 6 6 4 4 5 3 4 5 4 3 3 4 4 4 4 5 7 9 8 9 7 6 6 7
7 8 8 9 7 6 6 3 5 7 7 6 6 6 6 5 6 7 7 7 7 6 4 3 3 4 4 3 3 3 4 6 8 7 6 4 5 5 3 3 4 4 4 4 5 5 3 4 4 3 4 4 4 6 7 6 9 10 7 5 6 4 4 4 2 2 2 5 5 3 4 4 4 3 3 2 4 5 7 8 5 7 7 7 8
6 6 8 8 8 8 9 8 5 5 5 4 7 12 10 8 7 6 5 5 6 6 7 6 4 4 4 4 4 10 11 11 11 11 11 9 7 5 4 4 5 5 5 5 4 4 5 5 4 6 5 6 6 7 7 7 5 4 6 6 6 4 5 2 0 2 3 3 5 5 3 2 3 2 2 4 3 3 4 4 5 4 6 9 8
7 5 5 5 6 3 5 7 7 6 5 4 12 14 14 13 9 7 7 6 5 5 4 6 6 5 5 5 4 7 9 9 10 13 12 12 12 13 12 9 6 5 6 6 3 2 3 4 3 4 5 6 6 5 7 7 6 9 9 8 7 7 7 7 5 0 2 5 4 3 1 2 4 4 2 4 4 4 5 5 5 8 9 9 7
4 6 7 8 6 7 6 5 7 6 5 8 14 14 15 15 12 8 7 7 6 5 5 6 5 6 6 5 4 4 5 8 8 10 10 11 13 12 12 11 10 9 5 5 4 2 2 4 4 3 5 7 6 5 4 5 7 4 4 6 6 7 7 4 4 4 3 5 4 3 1 1 2 3 3 5 5 6 6 7 8 10 10 9 8
4 7 8 6 8 7 8 8 7 6 6 9 14 15 14 14 14 11 7 7 7 6 6 6 6 7 7 6 5 4 5 11 8 8 9 9 10 12 11 11 11 10 10 10 6 3 5 5 4 1 2 3 4 4 4 5 4 7 5 5 3 3 3 6 4 2 2 2 5 3 3 1 1 2 3 4 4 4 4 8 11 11 12 10 10
6 7 8 8 7 9 9 9 8 7 8 8 13 14 14 13 13 9 6 7 7 7 7 6 6 7 8 7 7 5 4 5 6 7 7 7 6 6 6 6 5 7 9 10 9 8 5 4 4 2 1 1 2 1 1 4 7 7 7 5 5 6 5 5 2 3 3 1 5 5 4 2 3 1 1 4 2 2 1 3 10 10 10 10 10
8 7 8 7 6 7 9 9 9 8 7 11 12 14 13 13 12 8 5 5 6 6 6 6 7 7 7 7 7 7 6 5 5 8 8 7 7 6 6 6 5 5 6 6 6 4 5 5 6 5 3 2 0 0 2 3 4 4 6 7 7 8 8 4 5 3 4 4 2 4 2 1 2 3 3 4 6 6 5 6 2 7 8 9 7
4 4 6 7 9 6 6 10 10 8 6 9 10 12 13 12 10 5 6 6 7 6 6 5 5 6 7 7 7 7 6 5 7 10 10 8 8 8 7 5 5 6 7 5 6 7 5 5 4 4 3 3 3 2 3 5 7 7 9 9 8 7 8 6 5 2 4 4 2 6 3 0 1 3 2 3 4 7 6 6 8 5 4 8 16
8 7 7 5 6 8 7 7 10 8 7 8 9 9 10 10 7 5 6 6 7 7 6 5 6 6 6 7 7 6 6 5 8 12 13 11 8 8 7 6 5 6 6 5 9 11 11 11 10 9 7 8 10 10 10 9 9 9 9 9 6 7 8 7 2 4 2 2 3 3 5 3 1 1 4 3 4 7 8 7 6 9 13 16 15
7 7 9 7 7 6 10 10 11 10 8 7 9 7 8 11 8 7 7 7 7 6 5 4 5 6 7 12 9 7 6 6 10 12 13 11 8 8 8 7 6 6 4 3 5 5 7 9 9 10 10 11 11 11 10 9 7 7 11 9 7 6 7 7 6 2 0 2 2 0 4 1 1 1 3 1 7 7 8 8 9 9 13 13 16
8 8 7 8 8 6 7 9 12 12 9 6 7 7 8 10 7 6 7 7 8 6 6 3 2 6 6 8 11 9 7 8 13 12 12 10 9 8 8 8 7 6 5 4 6 6 4 5 5 6 7 8 6 6 6 10 9 6 4 9 7 9 8 6 7 5 4 2 2 1 3 1 2 2 2 3 6 6 7 6 8 8 8 9 10
Wind_Direction
176 177 172 182 181 181 179 190 191 198 188 210 204 208 219 221 227 235 236 246 248 262 258 266 285 287 260 262 235 206 148 189 152 152 160 148 138 149 153 155 156 154 155 147 142 133 131 129 128 127 124 119 112 107 100 90 83 79 75 74 77 79 78 76 72 69 66 65 67 70 72 73 73 69 67 65 62 58 61 66 67 65 61 59 55
174 175 174 184 183 183 184 190 193 194 186 205 210 198 212 219 230 236 239 242 249 252 253 274 279 256 245 227 204 179 160 166 145 150 145 133 133 140 149 149 148 149 144 140 135 132 132 132 130 127 125 122 116 109 102 94 85 79 75 71 77 79 77 73 71 70 71 70 70 73 73 71 68 66 66 65 63 60 58 60 63 62 59 53 50
176 174 179 180 183 183 193 190 195 193 192 208 196 208 207 210 215 220 227 237 244 258 263 267 282 269 249 171 176 155 159 122 123 148 130 130 125 127 139 142 145 141 134 134 133 133 133 130 130 127 125 122 117 111 104 101 95 86 78 85 85 77 75 74 74 72 71 74 77 75 76 74 71 66 64 65 64 59 53 52 52 53 53 52 51
180 176 179 180 183 187 193 187 199 196 194 204 196 204 208 218 223 226 234 237 250 264 265 272 270 251 174 156 154 153 145 124 152 143 128 126 126 122 127 135 137 134 130 125 129 134 134 131 129 131 128 123 118 112 109 106 99 89 91 98 91 85 79 77 73 71 68 68 71 78 78 77 70 70 76 75 66 59 51 46 46 48 49 52 51
186 180 180 179 181 188 191 195 198 193 199 206 200 195 207 231 244 233 240 259 271 275 258 179 261 94 177 161 150 148 118 144 146 138 130 131 129 127 123 125 128 127 126 129 134 137 134 131 135 132 128 124 119 113 111 113 111 98 102 103 95 90 85 79 72 63 63 64 68 74 79 75 66 65 78 80 75 65 55 50 51 55 54 54 55
183 189 183 178 180 187 191 197 199 193 200 203 203 184 199 207 236 229 228 219 231 249 313 26 350 78 227 166 153 154 147 149 159 143 133 130 129 124 124 118 120 123 128 133 133 126 129 135 134 131 129 126 118 113 116 117 100 108 112 102 93 89 83 79 74 69 64 63 66 73 69 64 69 84 84 81 75 69 63 61 60 58 58 59 59
186 187 189 181 180 185 190 196 196 189 194 204 197 188 186 203 203 207 223 234 218 265 354 93 111 135 214 175 165 154 152 145 142 140 135 136 130 125 123 125 124 126 127 126 128 129 132 134 136 134 134 126 121 120 120 122 114 119 112 100 96 89 82 80 79 77 73 70 69 66 60 76 86 89 87 82 78 75 73 70 66 64 60 55 55
186 186 188 189 184 185 188 190 196 186 191 194 178 179 179 158 167 144 141 286 300 284 291 78 133 164 244 205 180 168 155 139 145 140 140 138 135 129 126 127 124 126 129 120 122 132 131 129 127 134 128 124 126 128 129 129 127 129 111 108 102 96 92 87 83 79 75 72 72 74 77 82 87 83 79 75 78 77 71 74 70 66 64 63 64
184 185 185 190 190 182 185 187 188 186 183 178 176 181 170 159 123 129 138 224 308 296 308 60 107 185 270 255 218 195 173 157 149 148 142 140 139 134 132 129 134 133 119 124 126 128 130 127 128 124 121 121 127 128 127 141 130 125 117 113 111 107 100 92 83 79 77 76 74 75 77 79 76 76 75 74 71 67 67 69 69 65 63 62 62
184 174 179 184 183 182 182 183 177 180 171 158 175 166 156 156 191 156 141 141 283 294 285 327 156 180 180 213 239 251 195 148 151 150 147 146 147 147 144 139 126 127 130 129 131 128 124 128 126 123 118 117 123 133 144 139 134 127 123 120 118 112 102 93 85 79 76 74 70 69 67 69 74 74 70 67 63 69 67 73 71 68 64 60 58
186 178 165 166 168 175 179 181 172 176 160 154 154 155 145 141 174 223 141 174 187 229 240 245 69 147 166 221 272 254 320 152 153 156 159 153 150 148 141 140 133 139 139 136 136 133 128 116 110 108 117 121 130 142 149 131 136 132 130 126 119 105 100 93 87 80 75 71 72 71 70 67 65 68 69 72 71 64 60 62 70 67 62 61 60
186 180 172 163 161 159 165 165 161 163 161 157 161 162 172 164 182 195 249 289 208 226 141 93 63 82 85 45 319 333 59 141 157 165 148 147 147 143 150 140 142 148 146 144 140 140 130 129 128 126 116 123 116 113 126 141 140 135 133 126 115 109 102 95 87 81 76 76 74 70 66 64 63 61 64 65 65 67 71 60 61 65 69 59 53
184 176 175 164 162 160 139 147 144 147 157 169 167 176 182 176 180 174 196 249 281 196 234 140 117 54 15 23 354 347 2 82 125 151 153 148 141 146 145 148 153 157 158 151 149 147 142 138 136 123 117 113 110 117 134 145 144 141 134 124 119 116 107 101 94 85 79 79 79 74 71 68 65 63 58 58 60 64 70 66 57 52 58 64 57
179 172 167 161 156 158 157 150 141 139 147 150 159 163 162 160 139 160 181 194 246 202 203 124 41 150 150 242 338 328 339 45 87 143 148 150 153 150 159 161 164 163 158 154 152 148 143 140 134 124 124 122 120 123 141 148 143 143 133 127 123 122 117 113 107 94 81 79 82 78 74 69 69 68 62 55 54 56 58 64 63 54 59 66 62
175 170 163 167 162 156 165 158 145 144 139 151 158 170 168 169 167 174 218 236 230 252 189 173 178 132 83 97 286 198 317 357 34 95 171 163 156 160 166 167 168 168 166 160 158 153 147 149 143 142 143 137 134 136 137 142 147 142 134 130 130 128 126 120 109 100 96 91 86 82 77 77 73 71 67 61 58 57 62 61 62 55 57 61 58
176 172 169 170 166 163 157 162 162 154 155 161 171 181 172 174 163 184 161 226 236 260 184 190 138 128 235 191 212 128 301 277 250 295 195 174 169 172 170 171 169 167 164 167 168 160 155 155 153 151 150 147 141 143 144 141 147 143 137 135 137 137 131 123 115 106 103 96 87 83 76 77 72 68 66 65 61 58 58 59 59 59 60 62 60
177 179 176 176 172 161 161 168 166 162 157 167 176 191 190 185 175 170 180 190 230 241 271 155 192 191 146 95 38 36 217 233 136 249 83 163 209 181 183 170 173 173 177 176 167 168 158 158 158 152 154 153 148 152 154 155 141 149 149 150 149 145 137 126 124 111 103 102 95 85 83 79 76 71 70 68 63 61 63 63 61 61 61 64 63
179 183 183 172 173 165 161 163 170 164 164 174 181 185 197 190 191 181 194 211 192 197 252 275 187 212 202 187 168 180 197 220 128 240 294 251 199 198 188 177 164 183 189 171 170 175 167 161 163 162 161 160 158 155 149 142 144 142 150 162 159 156 133 129 132 117 118 106 97 94 90 85 82 75 71 68 68 63 62 64 66 65 65 63 63
185 186 185 176 167 163 165 167 172 167 161 156 179 193 197 200 194 183 198 200 189 209 209 243 43 226 225 242 222 202 156 137 207 84 209 291 234 194 210 123 165 218 200 185 175 175 177 163 167 166 162 161 159 153 143 145 149 159 165 168 160 154 133 129 130 123 111 108 108 105 98 88 84 81 74 71 69 68 64 64 65 68 65 64 64
180 186 187 179 169 169 168 170 171 172 156 167 182 196 199 209 193 196 194 191 190 204 221 213 200 245 192 184 155 65 146 85 161 176 163 177 240 297 356 24 55 284 263 224 179 180 173 167 167 165 159 163 161 156 152 150 149 153 168 173 166 153 151 145 140 132 118 115 117 111 104 97 91 84 81 75 72 71 71 68 63 66 70 70 68
184 182 186 181 176 176 171 170 171 173 158 160 183 194 195 193 197 193 199 208 195 212 205 217 205 208 149 241 150 199 198 138 112 110 123 80 351 275 281 296 152 210 279 312 265 176 174 170 169 163 159 161 159 156 154 150 144 142 148 157 166 168 165 163 158 156 146 136 129 116 109 102 98 90 87 85 79 72 70 70 68 62 65 67 70
186 182 182 184 182 174 170 171 174 172 161 171 185 201 202 194 198 201 199 207 213 206 208 216 205 212 198 180 185 193 282 301 249 181 82 125 205 201 197 187 194 222 199 160 307 277 172 161 158 155 155 157 157 160 162 156 150 150 155 148 149 157 160 163 154 147 138 131 118 128 117 111 106 103 93 85 81 75 70 66 66 66 61 62 68
179 184 183 185 185 174 171 175 171 171 171 173 193 202 198 194 196 193 202 213 221 216 219 220 206 212 218 199 202 189 192 202 211 200 178 187 193 190 164 199 194 216 230 141 180 246 281 171 154 155 155 156 161 163 166 163 153 156 161 156 155 154 153 149 140 133 138 145 146 129 127 128 124 113 107 94 83 79 76 69 64 67 70 63 67
181 179 185 190 184 174 175 173 171 173 179 180 192 200 201 194 190 189 204 217 225 217 213 215 209 212 217 216 219 212 214 210 208 188 198 210 200 180 180 192 225 225 236 140 182 202 216 192 159 153 157 155 165 168 163 157 163 166 167 163 157 157 156 151 147 143 146 150 150 160 163 144 144 131 118 107 101 86 81 75 67 63 70 73 69
189 179 186 189 177 172 177 177 175 175 178 177 195 197 201 203 205 212 210 203 201 197 198 209 197 196 213 217 215 214 223 222 186 189 147 77 140 176 229 180 177 188 214 161 190 194 204 201 148 153 154 160 163 165 164 163 168 172 160 164 159 159 159 155 148 147 149 147 147 142 136 138 132 127 138 114 104 101 91 87 78 70 68 77 80
180 185 183 188 183 182 180 178 173 177 178 182 184 189 194 203 209 218 224 212 177 193 203 202 197 211 201 205 215 216 222 195 186 126 127 148 161 176 147 259 109 157 157 171 180 162 231 190 147 149 156 165 165 160 165 167 167 169 158 163 164 160 161 160 161 160 158 152 147 144 141 144 154 145 139 139 118 125 112 103 86 79 74 78 82
181 180 182 186 186 176 177 174 180 186 182 181 178 181 191 203 215 226 225 196 193 192 201 190 204 209 205 204 213 218 208 194 166 170 153 162 163 157 133 118 322 148 190 190 178 216 187 126 142 151 164 164 164 164 166 172 166 165 163 162 166 169 166 169 170 170 164 157 154 157 157 160 158 165 170 168 164 147 137 115 99 78 79 78 85
180 182 189 183 179 172 172 178 182 188 190 184 179 177 188 197 223 223 192 103 183 202 217 209 218 210 208 203 204 229 215 199 198 138 160 167 154 177 167 182 185 209 202 211 207 229 192 144 126 165 165 169 168 168 161 154 161 170 161 162 170 175 178 176 177 174 168 166 169 169 172 173 174 177 188 206 183 164 145 129 110 96 83 84 87
185 186 180 185 174 168 170 176 181 189 191 186 180 184 175 194 221 198 135 150 108 104 106 147 239 222 203 190 216 237 239 224 216 142 153 143 216 195 180 195 198 163 169 205 217 217 199 178 146 175 175 164 161 160 156 169 169 168 167 174 176 180 185 181 181 176 174 175 179 180 180 183 185 191 210 241 193 167 153 139 118 103 92 85 87
184 181 177 181 175 172 167 169 179 183 188 182 183 179 167 204 220 170 142 144 121 130 145 140 182 191 198 205 227 249 237 216 229 135 117 156 178 178 198 217 184 187 176 187 218 206 189 168 168 140 177 167 158 161 162 166 174 167 174 177 179 185 189 183 186 182 174 178 183 189 189 193 196 199 215 235 247 153 154 138 120 114 104 90 83
179 176 176 180 177 177 170 170 174 180 180 181 182 173 176 206 222 178 150 148 155 194 205 139 185 173 191 206 217 237 218 234 253 163 143 155 172 165 182 186 161 215 194 164 185 265 164 179 189 145 160 165 157 152 154 166 174 175 178 181 183 189 186 188 189 189 178 181 178 187 199 199 204 212 209 219 212 202 165 152 140 123 115 107 88
182 176 177 180 180 176 176 172 174 174 178 181 181 175 177 201 209 194 155 152 170 209 222 183 173 178 191 214 219 223 209 197 174 241 211 172 178 174 171 178 221 131 175 148 182 248 221 161 110 109 151 149 153 153 155 166 186 183 179 184 184 181 184 193 197 196 188 180 174 181 197 192 202 212 224 227 229 213 203 168 141 127 125 129 123
179 180 184 185 182 179 175 177 175 177 178 178 181 174 182 197 209 199 159 157 176 208 199 197 203 204 219 230 240 242 177 198 207 220 223 192 171 209 192 182 195 194 182 178 187 243 357 96 150 147 147 139 147 161 155 170 182 189 180 190 172 180 187 190 199 200 190 181 179 180 186 185 200 217 211 226 229 227 210 137 129 138 144 144 143
178 185 187 186 182 180 177 180 180 180 179 178 177 172 183 191 200 191 170 163 174 189 191 189 191 212 215 235 252 248 227 223 206 204 207 180 170 177 186 187 204 200 188 147 181 172 183 61 87 108 147 162 142 173 165 172 189 177 177 182 187 192 189 188 190 194 192 189 183 184 181 189 202 197 131 90 46 118 121 136 149 151 149 148 155
189 185 184 181 182 179 180 182 180 180 180 174 172 180 184 180 182 184 173 171 174 181 192 196 188 193 208 227 245 248 251 245 233 218 196 187 175 189 189 170 181 174 130 125 116 95 126 78 124 139 161 169 163 175 188 183 182 177 177 182 184 191 197 186 190 190 200 194 191 191 188 193 185 144 134 129 132 135 144 151 160 149 146 151 163
188 190 181 181 176 178 180 180 179 175 175 171 171 183 177 174 178 186 189 180 172 180 186 185 186 190 211 222 236 214 213 230 281 294 239 174 165 153 130 128 130 154 151 114 113 146 142 127 172 172 169 161 168 170 166 165 162 174 190 182 169 187 187 186 190 189 201 200 196 193 188 188 180 162 150 158 168 168 169 170 166 156 152 164 168
186 178 183 177 175 177 179 177 174 170 172 167 175 180 179 179 181 184 193 192 173 176 183 187 186 191 199 215 213 197 195 211 135 75 17 55 56 64 70 56 133 170 123 141 119 116 144 157 160 189 158 161 164 150 152 150 157 169 134 170 187 187 192 191 170 194 201 205 202 196 189 186 184 173 165 170 181 185 182 183 174 167 167 171 176
178 178 175 177 176 179 179 174 168 171 171 174 179 177 181 181 182 191 193 192 180 178 187 187 180 185 195 201 196 178 167 165 141 128 118 104 85 88 111 108 97 100 104 129 184 162 153 173 164 147 179 166 132 132 168 160 154 157 144 137 138 164 170 170 178 164 181 192 198 203 197 195 199 184 174 182 186 194 195 194 189 184 180 179 180
172 177 176 175 179 180 176 168 168 171 174 177 177 179 181 185 183 161 135 128 135 160 178 173 169 169 153 154 165 167 160 152 145 139 111 95 85 79 114 127 132 119 119 109 110 129 148 158 179 165 160 163 146 160 174 172 166 166 162 149 157 179 170 180 178 163 163 191 201 191 199 204 202 190 187 192 193 205 206 200 198 198 188 183 175
175 175 175 174 180 173 170 171 172 174 175 178 181 182 184 169 144 143 144 139 133 125 122 109 109 114 131 158 145 139 138 142 136 129 116 114 101 94 61 97 99 104 111 115 101 123 149 158 167 159 174 161 141 88 120 131 137 130 180 161 176 181 194 182 177 170 177 164 188 201 188 194 227 199 178 205 212 219 218 206 206 198 184 179 186
178 176 173 171 167 167 139 169 181 169 163 176 179 170 149 142 145 146 151 145 141 136 126 112 106 111 97 86 94 113 108 98 99 106 107 118 124 100 57 88 82 94 83 67 76 87 90 136 130 136 144 160 168 141 152 169 181 190 177 158 188 175 142 148 200 181 205 175 190 190 203 198 200 204 164 207 237 222 235 224 212 194 179 188 197
181 171 170 173 168 170 163 166 173 147 164 167 169 153 147 147 143 137 131 136 141 148 144 135 120 101 89 79 88 94 92 96 100 97 95 88 80 92 126 105 101 78 81 78 66 94 121 136 160 162 157 174 180 175 170 190 178 124 150 170 172 125 111 100 90 227 192 154 157 200 220 166 196 212 162 214 248 222 223 215 212 167 192 200 202
177 166 129 131 159 163 164 165 145 139 146 148 144 136 137 136 135 139 140 142 139 139 143 138 129 112 93 91 92 97 97 92 98 100 95 88 84 81 74 74 80 120 116 94 88 103 123 143 165 155 171 179 199 183 184 172 169 172 177 173 147 139 154 151 166 291 184 157 171 164 291 233 176 204 224 238 227 215 213 213 199 178 189 202 192
154 128 162 158 138 152 174 148 132 132 130 143 139 137 141 143 142 141 143 142 145 145 147 135 130 121 114 104 92 101 113 120 118 101 89 90 92 86 80 74 70 58 73 136 142 94 130 135 132 175 177 190 183 177 176 157 172 143 141 154 154 158 155 153 155 170 207 155 135 111 6 316 155 163 236 249 237 223 206 189 191 189 196 195 176
137 179 159 143 158 147 149 140 124 125 125 155 141 142 143 146 144 142 148 147 144 149 144 141 136 131 124 116 108 103 117 119 112 112 112 99 91 90 82 74 60 57 48 34 23 135 150 122 131 158 194 173 165 212 200 177 146 143 135 122 104 122 141 126 156 141 91 142 109 85 67 331 170 185 223 279 273 239 195 186 193 191 196 190 172
179 169 158 164 161 150 147 138 136 140 140 162 147 145 150 152 150 148 157 154 151 150 148 143 143 138 136 134 129 125 125 122 124 118 114 109 101 79 64 54 48 33 34 35 42 57 79 128 137 128 352 140 202 233 251 147 139 150 142 138 139 128 109 109 119 88 27 7 143 128 56 350 18 64 352 325 7 63 136 198 194 195 196 192 179
172 172 164 164 154 143 145 139 133 140 152 156 155 152 155 158 161 155 155 142 135 135 134 146 148 144 144 140 140 143 148 143 143 132 119 116 101 89 75 59 54 43 39 24 12 16 64 76 89 102 78 45 131 200 120 139 136 137 143 144 138 116 112 110 64 46 48 33 106 94 125 256 348 60 16 345 358 26 33 41 19 200 197 183 186
146 133 108 134 141 153 153 132 127 137 143 159 160 158 161 165 164 155 156 142 132 130 140 155 150 144 139 141 141 147 153 153 152 131 123 119 105 97 87 76 63 57 48 33 33 46 61 76 80 80 52 28 26 33 63 107 103 101 88 90 92 101 101 76 68 351 46 339 53 105 110 81 322 107 49 347 37 37 10 32 15 64 125 83 79
153 153 142 126 132 135 139 129 128 143 151 167 160 167 168 169 160 161 153 138 132 137 155 163 159 147 147 148 147 150 151 159 153 132 127 115 109 105 101 88 74 72 51 36 49 61 70 74 76 76 76 74 68 64 65 79 113 118 111 105 123 129 112 107 71 56 32 318 347 92 118 96 357 112 88 15 45 41 20 11 22 47 73 100 106
153 128 138 135 124 153 143 144 149 149 157 153 158 166 194 192 180 163 158 143 135 138 150 166 160 154 158 159 152 151 155 164 152 136 131 120 116 121 116 110 100 93 82 80 77 65 77 92 94 89 77 69 70 66 66 79 101 138 136 148 167 117 109 124 132 141 117 11 347 119 77 112 318 5 108 34 50 35 27 27 31 48 71 77 87
131 137 131 127 141 158 151 144 148 145 154 149 154 174 213 212 184 162 152 139 132 141 142 141 150 156 156 158 157 157 163 165 151 143 141 130 131 136 135 124 126 133 166 149 123 108 86 70 47 58 47 45 53 66 64 64 73 60 98 127 134 120 127 129 127 119 75 2 318 28 95 317 67 343 118 90 78 52 31 38 42 46 60 79 83